Showing default

LEMUR 2 CAEL, 58903

Orbit data source: Space-Track

LEMUR 2 CAEL, 58903 is an American payload satellite in SSO that was launched on Wed, 31 Jan 2024 UTC via an ELECTRON launch vehicle from the Rocket Lab Launch Complex (RLLC). Payloads include a variety of satellites, spacecraft, and rockets equipped with specific instruments for various scientific and technological missions. These include communications satellites like Starlink; space stations such as the ISS; scientific satellites like the Hubble; Earth observation satellites from companies like Planet Labs, Umbra, and HawkEye 360; GPS; miniature CubeSats for education and research; and military/defense satellites.

Loading next visibility...
LEMUR 2 CAEL details
Identifier
58903, 2024-022E
Orbit
SSO
Last TLE update12 hours ago
Origin
Flag of USSPIRE/NSTAR (US)
ManufacturerSpire/Glasgow
MissionOperational Commercial Early Warn
Bus & MotorCUBESAT 3U, Unknown motor
Mass~25 kg wet, ~25 kg dry
Launch date (UTC)
2024-01-31 (1 year ago)
Launch vehicle
ELECTRON
Launch site
Rocket Lab Launch Complex (RLLC)
Object type
Payload
Rocket body
Debris
Shape & HBRBox + 2 Pan, 1 m
Radar Cross Section0.146 m², Medium (>0.1 m² and < 1m²)

Expand to show TLE details & history

TLE from 12 hours ago
0 LEMUR 2 CAEL
1 58903U 24022E   25037.54087199  .00016921  00000-0  70271-3 0  9994
2 58903  97.4586 241.4652 0012479  61.7922 298.4574 15.23827835 56442
Epoch: 2025-02-06T12:58Z
Definitive object data (Epoch: 2025-02-06T12:58:51.339Z)
Latitude-0.00001°
Longitude-90.16469°
Altitude493.322 km
Speed7.62 km/s
True Right ascension16h 05m 51s
True Declination0° 00' 00"
Sunlit
Object was in daylight at TLE epoch
Visualization TLE readout
Latitude-63.39818°
Longitude-74.58514°
Altitude523.361 km
Speed7.598 km/s
Apparent Right ascension16h 06m 25s
Apparent Declination-52° 35' 32"
Sunlit
Object is in daylight
Visualization observer readout
Local Sidereal Time03:27:38
Azimuth204.445° SW
Elevation-75.69°
Doppler factor1
Orbital elements
Apogee altitude499.843 km
Perigee altitude482.698 km
Semi-major axis6,869.407 km
Eccentricity0.0012479
Inclination97.4586°
RAAN241.4652°
Arg. of periapsis61.7922°
True anomaly298.33159°
Mean anomaly298.4574°
Eccentric anomaly298.3945°
Mean motion3.8121 °/min
BSTAR0.00070271
Orbital period94.44 mins
Loading maneuver chart data...
Loading historical data...
Loading historical data...
Loading historical data...
Loading historical data...
Loading historical data...
Loading historical data...
Loading historical data...

LEMUR 2 CAEL Visibility forecast

Observer location: undefined°, undefined

Span
Click to sort rows by Start time (UTC) header in descending order
Start Az.
Max El. time (UTC)
Max El. Az.
Max El.
End time (UTC)
End Az.
6 mins2025-02-07 02:09:25.981Z22.727° NE2025-02-07 02:12:25.981Z135.515° SSE39.735°2025-02-07 02:15:25.981Z181.677° SSW
4 mins2025-02-07 14:20:25.981Z232.335° WSW2025-02-07 14:22:25.981Z276.407° WNW18.368°2025-02-07 14:24:25.981Z311.648° NW
|